www.pogodaiklimat.ru

Погода и климат >> Архив погоды >> Казахстан >> Аршалынский


ПОГОДА в Аршалынском

  • Прогноз погоды в Аршалынском
  • Монитор погоды в Аршалынском

АРХИВ ПОГОДЫ в Аршалынском

Время (UTC), дата Ветер
(напр.,м/с)
 
Видим.   Явления Облачность Т
(С)
Тd
(С)
f
(%)
Тe
(С)
Тes
(С)
Комфортность P
(гПа)
Po
(гПа)
Тmin
(С)
Tmax
(С)
R
(мм)
R24
(мм)
S
(см)
03 13.08 З 6 50 км 3/3 1000 м
[Sc]
+12.0 +8.4 79 +9 +10 997.8 967.3
06 13.08 Ю 2 50 км 3/3 1000 м
[Cu med, cong]
+19.0 +9.4 54 +20 +28 997.5 967.7 +9.7
09 13.08 Ю 2 50 км 6/4 600 м
[Cb calv Ci fib]
+23.6 +8.2 37 +24 +31 комфорт 996.8 967.5
15 13.08 Ю 2 50 км 6/6 600 м
[Cb cap]
+20.0 +8.1 46 +22 +22 комфорт 999.6 969.8 +26.0
18 13.08 штиль 0 н/о 4/4 1000 м
[Sc]
+14.1 +11.9 87 +14 +14 1001.7 971.4 +26.0
21 13.08 штиль 0 н/о ясно +10.7 +7.6 81 +10 +10 1003.1 972.3
00 14.08 штиль 0 н/о ясно +9.2 +7.1 87 +8 +8 1004.7 973.7
03 14.08 штиль 0 50 км 3/0
[Ci sp]
+12.4 +8.4 77 +12 +15 1006.3 975.6
06 14.08 Ю 2 50 км 3/0
[Ci fib]
+18.7 +7.7 49 +20 +30 1007.2 977.2 +8.9
09 14.08 В 4 50 км 8/6 1000 м
[Cu hum Ci fib]
+21.5 +7.4 40 +22 +25 комфорт 1007.5 977.7
12 14.08 В 2 50 км 8/6 1000 м
[Cu Sc Ci sp]
+22.3 +5.3 33 +23 +24 комфорт 1008.0 978.2
15 14.08 С 2 50 км 6/6 600 м
[Cb cap]
+21.3 +6.8 39 +22 +22 комфорт 1009.0 979.1 +24.9
18 14.08 С 2 н/о 6/6 1000 м
[Sc]
+18.5 +13.2 71 +20 +20 1010.9 980.7 +24.9
21 14.08 С 2 н/о дымка 3/3 1000 м
[Sc]
+14.5 +12.3 87 +14 +14 1011.4 980.7
00 15.08 штиль 0 н/о дымка 3/0
[Ci fib]
+12.6 +11.7 94 +12 +12 1012.6 981.7
03 15.08 С 2 20 км 10/10 1000 м
[Sc]
+14.9 +13.1 89 +15 +15 1013.8 983.3
06 15.08 С 2 50 км 6/6 1000 м
[Cu med, cong]
+21.9 +13.2 58 +25 +29 комфорт 1013.2 983.4 +12.2
09 15.08 С 4 50 км 6/6 1000 м
[Cu med, cong]
+23.9 +10.4 43 +25 +28 комфорт 1013.3 983.5
12 15.08 С 6 50 км 8/8 600 м
[Cb calv]
+24.0 +9.0 38 +25 +25 комфорт 1013.6 983.8
15 15.08 С 2 50 км 3/3 1000 м
[Sc Ci fib]
+22.7 +9.4 43 +24 +24 комфорт 1014.3 984.4 +26.1
18 15.08 штиль 0 н/о 3/3 1000 м
[Sc]
+15.1 +8.6 65 +15 +15 1016.2 985.5 +26.1
21 15.08 штиль 0 н/о ясно +12.8 +8.0 73 +12 +12 1016.8 985.8
00 16.08 штиль 0 н/о 3/0
[Ci fib]
+10.6 +7.4 81 +10 +10 1018.2 986.9
03 16.08 штиль 0 50 км 3/0
[Ac trans]
+15.3 +11.5 78 +15 +18 1018.3 987.6
06 16.08 С 2 50 км 4/3 1000 м
[Cu med, cong Ci fib]
+23.1 +11.8 49 +26 +33 жарко 1017.5 987.6 +9.6
09 16.08 С 2 50 км 8/8 600 м
[Cb calv]
+25.9 +9.0 34 +26 +29 жарко 1016.4 986.7
12 16.08 С 2 50 км 4/4 1000 м
[Cu med, cong]
+27.6 +8.9 31 +28 +30 жарко 1015.4 986.0
15 16.08 С 2 50 км ясно +26.0 +10.3 37 +27 +27 жарко 1015.9 986.4 +28.1
18 16.08 штиль 0 н/о ясно +16.7 +8.5 58 +17 +17 1017.8 987.2 +28.1
21 16.08 штиль 0 н/о ясно +13.8 +8.6 71 +14 +14 1018.5 987.6
00 17.08 штиль 0 н/о ясно +11.6 +7.4 75 +11 +11 1019.6 988.4
03 17.08 штиль 0 50 км 8/0
[Ci fib]
+16.3 +9.8 65 +16 +19 1019.5 988.9
06 17.08 З 2 50 км 8/0
[Ci fib]
+26.9 +9.7 34 +27 +36 жарко 1018.3 988.7 +11.3
09 17.08 С 2 50 км 8/0
[Ci sp]
+30.2 +8.2 25 +29 +39 жарко 1017.4 988.2
12 17.08 штиль 0 50 км 8/4 1000 м
[Cu med, cong Ci sp]
+31.7 +10.5 27 +31 +35 жарко 1016.6 987.5
15 17.08 С 2 50 км 8/0
[Ci sp]
+28.4 +10.6 33 +29 +29 жарко 1017.5 988.1 +32.1
18 17.08 СВ 2 н/о 8/0
[Ci sp]
+22.3 +11.4 50 +24 +24 комфорт 1018.4 988.4 +32.1
21 17.08 Ю 2 н/о 4/0
[Ci fib]
+18.3 +11.0 62 +19 +19 1019.3 988.9
00 18.08 Ю 2 н/о 3/0
[Ci fib]
+15.6 +9.9 69 +16 +16 1020.0 989.3
03 18.08 штиль 0 50 км 8/0
[Ci sp]
+20.0 +10.2 53 +21 +24 комфорт 1020.2 989.8
06 18.08 Ю 2 50 км 8/0
[Ci sp]
+30.2 +8.0 25 +29 +38 жарко 1019.1 989.8 +14.7
09 18.08 ЮЗ 2 50 км 8/6 600 м
[Cu med, cong Ci sp]
+34.2 +7.4 19 +32 +37 жарко 1018.1 989.2
12 18.08 З 4 50 км 8/4 600 м
[Cu Sc Ci sp]
+34.2 +7.7 20 +33 +34 жарко 1018.0 989.1
15 18.08 С 4 50 км 8/6 600 м
[Cb cap Ci sp]
+31.1 +10.2 28 +31 +31 жарко 1018.9 989.7 +34.9
18 18.08 С 2 н/о 4/4 1000 м
[Sc]
+23.1 +11.1 47 +25 +25 комфорт 1020.9 990.9 +34.9
21 18.08 штиль 0 н/о 8/8 1000 м
[Sc]
+17.5 +10.9 65 +18 +18 1021.9 991.3
00 19.08 штиль 0 н/о 9/9 600 м
[Cb cap]
+18.4 +10.9 62 +19 +19 1022.8 992.3
03 19.08 СВ 2 50 км 8/4 1000 м
[Sc Ac trans Ci sp]
+21.1 +14.2 65 +24 +25 комфорт 1023.3 993.0
06 19.08 В 4 50 км 9/4 1000 м
[Cu med, cong Ac trans Ci fib]
+28.8 +14.2 41 +31 +33 жарко 1023.3 993.8 +17.2
09 19.08 В 4 50 км 8/6 1000 м
[Cu Sc Ac trans]
+30.0 +13.2 36 +31 +34 жарко 1023.2 993.8
12 19.08 С 4 50 км 9/6 1000 м
[Cu Sc Ac lent]
+30.9 +11.8 31 +31 +32 жарко 1022.6 993.3

 

Местоположение метеостанции Аршалынский (Акмолинская область, Казахстан): широта 52.72 долгота 61.20 высота над уровнем моря 250 м.

В архиве по умолчанию представлена погода в Аршалынском за последнюю неделю. Архивные данные за месяц целиком и за предыдущие месяцы, начиная с января 2011 года, Вы можете получить, выбрав интересующий диапазон дат из раскрывающегося списка и нажав кнопку "Ввод!".


*Определитесь, кто Вы:
робот инопланетянин человек

Внимание! Время в таблицах - всемирное. Для получения местного времени необходимо прибавить поправку, которая равна 5 ч.

Смотрите также архив погоды в соседних городах и на ближайших метеорологических станциях:

Погода в Житикаре (Костанайская область, Казахстан) (47 км)
Погода в Карталы (Челябинская область, Россия) (51 км)
Погода в Бредах (Челябинская область, Россия) (66 км)
Погода в Тоболе (Костанайская область, Казахстан) (94 км)
Погода в Михайловке (Костанайская область, Казахстан) (102 км)
Погода в Айдырля (Оренбургская область, Россия) (124 км)
Погода в Рудном (Костанайская область, Казахстан) (132 км)
Погода в Карабалыке (Костанайская область, Казахстан) (132 км)
Погода в Троицке (Челябинская область, Россия) (154 км)
Погода в Кизильском (Челябинская область, Россия) (156 км)

Пояснения к столбцам:

Ветер - указаны скорость ветра в м/с - средняя за 10 мин, порывы в срок и между сроками (в фигурных скобках) и направление, откуда дует ветер: С - северный, СВ - северо-восточный, В - восточный, ЮВ - юго-восточный, Ю - южный, ЮЗ - юго-западный, З - западный, СЗ - северо-западный.
Видимость - горизонтальная дальность видимости в метрах или километрах. При видимости от 1 до 10 км при отсутствии осадков обычно наблюдается дымка, при ухудшении видимости до 1 км и менее - туман. В сухую погоду видимость может ухудшаться дымом, пылью или мглою.
Явления - указаны атмосферные явления, наблюдавшиеся в срок или в последний час перед сроком; фигурными скобками обозначены явления, наблюдавшиеся между сроками (за 1-3 часа до срока); квадратными скобками обозначены град или гололедные отложения с указанием их диаметра в мм.
Облачность - указаны через наклонную черту общая и нижняя облачность в баллах и высота нижней границы облаков в метрах; квадратными скобками обозначены формы облаков: Ci - перистые, Cs - перисто-слоистые, Cc - перисто-кучевые, Ac - высококучевые, As - высокослоистые, Sc - слоисто-кучевые, Ns - слоисто-дождевые, Cu - кучевые, Cb - кучево-дождевые. Подробнее классификацию облаков см. в Атласе облаков (PDF).
T - Температура воздуха - температура, измеренная на высоте 2 м над землей.
Td - Температура точки росы - температура, при понижении до которой содержащийся в воздухе водяной пар достигнет насыщения.
f - Относительная влажность воздуха - влажноcть воздуха, измеренная на высоте 2 м над землей.
Te - Эффективная температура - температура, которую ощущает одетый по сезону человек в тени. Характеристика душности погоды. При расчете учитывается влияние влажности воздуха и скорости ветра на теплоощущения человека.
Tes - Эффективная температура на солнце - температура, которую ощущает человек, с поправкой на солнечный нагрев. Характеристика знойности погоды. Зависит от высоты солнца над горизонтом, облачности и скорости ветра. Ночью, в пасмурную погоду, а также при ветре 12 м/с и более поправка равна нулю.
P - Атмосферное давление - приведенное к уровню моря атмосферное давление.
Po - Атмосферное давление - измеренное на уровне метеостанции атмосферное давление.
Tmin - Минимальная температура - минимум температуры воздуха на высоте 2 м над землей.
Tmax - Максимальная температура - максимум температуры воздуха на высоте 2 м над землей.
R - Количество осадков - Количество выпавших осадков за период времени, мм. При наведении курсора мыши на число - период времени, за который выпало указанное количество осадков.
R24 - Количество осадков - Количество выпавших осадков за 24 часа, мм.
S - Снежный покров - Высота снежного покрова, см. При наведении курсора мыши на число - состояние снежного покрова и степень покрытия местности в баллах.